Weather History for VTBD - May, 2013

Change the Weather History Date:

Saturday, May 4, 2013

  Actual Average Record
Temperature  
Mean Temperature 92 °F -  
Max Temperature 99 °F 91 °F 102 °F (1997)
Min Temperature 84 °F 78 °F 71 °F (1999)
Cooling Degree Days 26    
Growing Degree Days 42 (Base 50)    
Moisture  
Dew Point 77 °F    
Average Humidity 64    
Maximum Humidity 89    
Minimum Humidity 42    
Precipitation  
Precipitation 0.00 in 0.21 in - ()
Sea Level Pressure  
Sea Level Pressure 29.72 in    
Wind  
Wind Speed 7 mph ()    
Max Wind Speed 14 mph    
Max Gust Speed -    
Visibility 6.2 miles    
Events      
Averages and records for this station are not official NWS values.
T = Trace of Precipitation, MM = Missing Value Source: Averaged Metar Reports

Daily Weather History Graph

Daily Weather History Graph

Search for Another Location

Airport or City:

Trip Planner

Search our weather history database for the weather conditions in past years. The results will help you decide how hot, cold, wet, or windy it might be!

Date:

Astronomy

May. 04, 2013 Rise Set
Actual Time 5:54 AM ICT 6:34 PM ICT
Civil Twilight 5:32 AM ICT 6:56 PM ICT
Nautical Twilight 5:06 AM ICT 7:22 PM ICT
Astronomical Twilight 4:39 AM ICT 7:49 PM ICT
Moon 1:38 AM ICT (5/4) 1:50 PM ICT (5/4)
Length of Visible Light 13h 24m
Length of Day
12h 39m
Waning Crescent, 31% of the Moon is Illuminated
May 4
Waning Crescent
May 10
New
May 18
First Quarter
May 25
Full
Jun 1
Last Quarter

Hourly Weather History & Observations

Time (ICT) Temp. Heat Index Dew Point Humidity Pressure Visibility Wind Dir Wind Speed Gust Speed Precip Events Conditions
12:00 AM 87.8 °F 102.5 °F 78.8 °F 75% 29.74 in 6.2 mi South 10.4 mph - N/A   Mostly Cloudy
12:30 AM 87.8 °F 102.5 °F 78.8 °F 75% 29.71 in 6.2 mi SSW 10.4 mph - N/A   Mostly Cloudy
1:00 AM 87.8 °F 104.9 °F 80.6 °F 79% 29.71 in 6.2 mi SW 6.9 mph - N/A   Mostly Cloudy
1:30 AM 87.8 °F 102.5 °F 78.8 °F 75% 29.71 in 6.2 mi SW 10.4 mph - N/A   Mostly Cloudy
2:00 AM 87.8 °F 102.5 °F 78.8 °F 75% 29.71 in 6.2 mi SSW 6.9 mph - N/A   Mostly Cloudy
2:30 AM 87.8 °F 102.5 °F 78.8 °F 75% 29.71 in 6.2 mi SSE 5.8 mph - N/A   Mostly Cloudy
3:00 AM 87.8 °F 102.5 °F 78.8 °F 75% 29.71 in 6.2 mi SE 5.8 mph - N/A   Mostly Cloudy
3:30 AM 86.0 °F 99.3 °F 78.8 °F 79% 29.71 in 6.2 mi SSE 4.6 mph - N/A   Mostly Cloudy
4:00 AM 86.0 °F 101.9 °F 80.6 °F 84% 29.71 in 6.2 mi ESE 5.8 mph - N/A   Mostly Cloudy
4:30 AM 86.0 °F 101.9 °F 80.6 °F 84% 29.71 in 6.2 mi SSE 5.8 mph - N/A   Mostly Cloudy
5:00 AM 86.0 °F 99.3 °F 78.8 °F 79% 29.71 in 6.2 mi ESE 6.9 mph - N/A   Mostly Cloudy
5:30 AM 84.2 °F 98.3 °F 80.6 °F 89% 29.74 in 6.2 mi ESE 4.6 mph - N/A   Mostly Cloudy
6:30 AM 84.2 °F 96.1 °F 78.8 °F 84% 29.74 in 6.2 mi ESE 6.9 mph - N/A   Mostly Cloudy
7:00 AM 85 °F - 80 °F 79% 29.78 in 6 mi ESE 5.8 mph - -   Scattered Clouds
7:00 AM 84.2 °F 96.1 °F 78.8 °F 84% 29.77 in 6.2 mi ESE 5.8 mph - N/A   Mostly Cloudy
7:30 AM 86.0 °F 99.3 °F 78.8 °F 79% 29.77 in 6.2 mi ESE 8.1 mph - N/A   Mostly Cloudy
8:00 AM 86.0 °F 99.3 °F 78.8 °F 79% 29.77 in 6.2 mi SSE 6.9 mph - N/A   Mostly Cloudy
8:30 AM 87.8 °F 102.5 °F 78.8 °F 75% 29.77 in 6.2 mi SSE 5.8 mph - N/A   Mostly Cloudy
9:00 AM 89.6 °F 104.7 °F 78.8 °F 70% 29.77 in 6.2 mi SSE 6.9 mph - N/A   Mostly Cloudy
9:30 AM 91.4 °F 107.2 °F 78.8 °F 66% 29.77 in 6.2 mi SSE 6.9 mph - N/A   Mostly Cloudy
10:00 AM 91.4 °F 105.1 °F 77.0 °F 63% 29.77 in 6.2 mi SSE 5.8 mph - N/A   Mostly Cloudy
10:30 AM 91.4 °F 105.1 °F 77.0 °F 63% 29.77 in 6.2 mi SSE 5.8 mph - N/A   Mostly Cloudy
11:00 AM 95.0 °F 109.7 °F 77.0 °F 56% 29.77 in 6.2 mi South 5.8 mph - N/A   Mostly Cloudy
11:30 AM 95.0 °F 109.7 °F 77.0 °F 56% 29.77 in 6.2 mi South 9.2 mph - N/A   Mostly Cloudy
12:00 PM 96.8 °F 109.6 °F 75.2 °F 50% 29.74 in 6.2 mi South 9.2 mph - N/A   Mostly Cloudy
12:30 PM 96.8 °F 109.6 °F 75.2 °F 50% 29.74 in 6.2 mi SW 10.4 mph - N/A   Mostly Cloudy
1:00 PM 97 °F - 76 °F 42% 29.75 in 6 mi SW 6.9 mph - -   Scattered Clouds
1:00 PM 96.8 °F 112.2 °F 77.0 °F 53% 29.71 in 6.2 mi SW 6.9 mph - N/A   Mostly Cloudy
1:30 PM 96.8 °F 112.2 °F 77.0 °F 53% 29.71 in 6.2 mi North 13.8 mph - N/A   Mostly Cloudy
2:00 PM 93.2 °F 107.2 °F 77.0 °F 59% 29.68 in 6.2 mi North 5.8 mph - N/A   Mostly Cloudy
2:30 PM 93.2 °F 107.2 °F 77.0 °F 59% 29.65 in 6.2 mi North 5.8 mph - N/A   Mostly Cloudy
3:00 PM 96.8 °F 109.6 °F 75.2 °F 50% 29.65 in 6.2 mi SSE 5.8 mph - N/A   Mostly Cloudy
3:30 PM 96.8 °F 109.6 °F 75.2 °F 50% 29.65 in 6.2 mi SSE 5.8 mph - N/A   Mostly Cloudy
4:00 PM 98.6 °F 111.7 °F 75.2 °F 47% 29.62 in 6.2 mi South 9.2 mph - N/A   Scattered Clouds
4:30 PM 98.6 °F 111.7 °F 75.2 °F 47% 29.62 in 6.2 mi SW 9.2 mph - N/A   Scattered Clouds
5:00 PM 98.6 °F 109.2 °F 73.4 °F 44% 29.62 in 6.2 mi SW 9.2 mph - N/A   Scattered Clouds
5:30 PM 96.8 °F 107.3 °F 73.4 °F 47% 29.62 in 6.2 mi South 9.2 mph - N/A   Scattered Clouds
6:00 PM 95.0 °F 103.2 °F 71.6 °F 47% 29.65 in 6.2 mi South 9.2 mph - N/A   Scattered Clouds
6:30 PM 95.0 °F 104.5 °F 73.4 °F 49% 29.65 in 6.2 mi South 9.2 mph - N/A   Scattered Clouds
7:00 PM 93 °F - 75 °F 47% 29.69 in 6 mi South 9.2 mph - -   Scattered Clouds
7:00 PM 93.2 °F 105.0 °F 75.2 °F 56% 29.65 in 6.2 mi South 9.2 mph - N/A   Scattered Clouds
7:30 PM 93.2 °F 105.0 °F 75.2 °F 56% 29.68 in 6.2 mi South 9.2 mph - N/A   Scattered Clouds
8:00 PM 93.2 °F 105.0 °F 75.2 °F 56% 29.71 in 6.2 mi South 5.8 mph - N/A   Scattered Clouds
8:30 PM 91.4 °F 105.1 °F 77.0 °F 63% 29.71 in 6.2 mi South 5.8 mph - N/A   Scattered Clouds
9:00 PM 91.4 °F 105.1 °F 77.0 °F 63% 29.74 in 6.2 mi South 8.1 mph - N/A   Scattered Clouds
9:30 PM 89.6 °F 102.2 °F 77.0 °F 66% 29.74 in 6.2 mi SSE 5.8 mph - N/A   Scattered Clouds
10:00 PM 89.6 °F 102.2 °F 77.0 °F 66% 29.77 in 6.2 mi SSE 5.8 mph - N/A   Scattered Clouds
10:30 PM 89.6 °F 102.2 °F 77.0 °F 66% 29.80 in 6.2 mi South 6.9 mph - N/A   Scattered Clouds
11:00 PM 89.6 °F 104.7 °F 78.8 °F 70% 29.80 in 6.2 mi ESE 3.5 mph - N/A   Scattered Clouds
11:30 PM 89.6 °F 104.7 °F 78.8 °F 70% 29.80 in 6.2 mi SE 5.8 mph - N/A   Scattered Clouds